Tracking 20241 objects as of 28-Jan-2020
HD Live streaming from Space Station
objects crossing your sky now

IRAZU

Track IRAZU now!
10-day predictions
IRAZU is classified as:


NORAD ID: 43468
Int'l Code: 1998-067NR
Perigee: 299.4 km
Apogee: 304.7 km
Inclination: 51.6 °
Period: 90.4 minutes
Semi major axis: 6673 km
RCS: Unknown
Launch date: November 30, 1998
Source: COSTA RICA (CRI)
Launch site: TYURATAM MISSILE AND SPACE COMPLEX (TTMTR)

Uplink (MHz):
Downlink (MHz): 436.500
Beacon (MHz):
Mode: 9600bps FSK
Call sign: TI0IRA
Status: Active

aabbcc
Your satellite tracking list
Your tracking list is empty




NASA's NSSDC Master Catalog

Two Line Element Set (TLE):
1 43468U 98067NR  20028.58017434 +.00129522 +17482-4 +37732-3 0  9991
2 43468 051.6298 256.2160 0003911 195.9014 164.1871 15.92636367198287
Source of the keplerian elements: AMSAT